Litchfield, MN

1:52 AM CDT on October 18, 2017 (GMT -0500)
Litchfield Municipal

Weather History for KLJF - February, 2013

Change the Weather History Date:

Wednesday, February 6, 2013

  Actual Average Record
Temperature  
Mean Temperature 16 °F -  
Max Temperature 26 °F 22 °F 50 °F (1987)
Min Temperature 6 °F 2 °F -26 °F (1967)
Degree Days  
Heating Degree Days 49    
Moisture  
Dew Point 15 °F    
Average Humidity 90    
Maximum Humidity 100    
Minimum Humidity 79    
Precipitation  
Precipitation 0.00 in - - ()
Sea Level Pressure  
Sea Level Pressure 29.96 in    
Wind  
Wind Speed 4 mph (East)    
Max Wind Speed 16 mph    
Max Gust Speed -    
Visibility 8 miles    
Events Snow    
Averages and records for this station are not official NWS values.
T = Trace of Precipitation, MM = Missing Value Source: NWS Daily Summary

Daily Weather History Graph

Daily Weather History Graph

Search for Another Location

Airport or City:

Trip Planner

Search our weather history database for the weather conditions in past years. The results will help you decide how hot, cold, wet, or windy it might be!

Date:

Astronomy

Feb. 06, 2013 Rise Set
Actual Time 7:31 AM CST 5:33 PM CST
Civil Twilight 7:00 AM CST 6:04 PM CST
Nautical Twilight 6:25 AM CST 6:39 PM CST
Astronomical Twilight 5:51 AM CST 7:13 PM CST
Moon 4:21 AM CST (2/6) 1:47 PM CST (2/6)
Length of Visible Light 11h 03m
Length of Day
10h 01m
Waning Crescent, 17% of the Moon is Illuminated
Feb 6
Waning Crescent
Feb 10
New
Feb 17
First Quarter
Feb 25
Full
Mar 4
Last Quarter

Hourly Weather History & Observations

Time (CST) Temp. Windchill Dew Point Humidity Pressure Visibility Wind Dir Wind Speed Gust Speed Precip Events Conditions
12:13 AM 8.6 °F - 6.8 °F 92% 30.06 in 10.0 mi Calm Calm - N/A   Overcast
12:33 AM 8.6 °F - 6.8 °F 92% 30.06 in 10.0 mi Calm Calm - N/A   Overcast
1:13 AM 10.4 °F - 6.8 °F 85% 30.06 in 10.0 mi Calm Calm - N/A   Overcast
1:32 AM 10.4 °F - 8.6 °F 92% 30.06 in 10.0 mi Calm Calm - N/A   Overcast
1:53 AM 10.4 °F - 8.6 °F 92% 30.05 in 10.0 mi Calm Calm - N/A   Overcast
2:33 AM 8.6 °F - 6.8 °F 92% 30.05 in 10.0 mi Calm Calm - N/A   Unknown
2:53 AM 8.6 °F - 6.8 °F 92% 30.05 in 10.0 mi Calm Calm - N/A   Unknown
3:13 AM 8.6 °F - 6.8 °F 92% 30.04 in 10.0 mi Calm Calm - N/A   Clear
3:32 AM 6.8 °F - 6.8 °F 100% 30.03 in 10.0 mi Calm Calm - N/A   Clear
3:53 AM 6.8 °F - 5.0 °F 92% 30.03 in 10.0 mi Calm Calm - N/A   Clear
4:13 AM 6.8 °F - 5.0 °F 92% 30.02 in 10.0 mi Calm Calm - N/A   Mostly Cloudy
4:32 AM 8.6 °F - 6.8 °F 92% 30.02 in 10.0 mi Calm Calm - N/A   Overcast
4:53 AM 8.6 °F - 6.8 °F 92% 30.04 in 10.0 mi Calm Calm - N/A   Mostly Cloudy
5:13 AM 10.4 °F - 8.6 °F 92% 30.04 in 10.0 mi Calm Calm - N/A   Mostly Cloudy
5:32 AM 10.4 °F - 8.6 °F 92% 30.04 in 10.0 mi Calm Calm - N/A   Overcast
5:53 AM 10.4 °F - 8.6 °F 92% 30.03 in 10.0 mi Calm Calm - N/A   Overcast
6:13 AM 10.4 °F - 8.6 °F 92% 30.02 in 10.0 mi Calm Calm - N/A   Overcast
6:32 AM 10.4 °F 0.8 °F 8.6 °F 92% 30.00 in 10.0 mi SE 5.8 mph - N/A   Overcast
6:53 AM 10.4 °F 4.0 °F 8.6 °F 92% 30.01 in 10.0 mi SSE 3.5 mph - N/A   Overcast
7:13 AM 12.2 °F - 8.6 °F 85% 30.02 in 10.0 mi Calm Calm - N/A   Overcast
7:32 AM 12.2 °F 6.1 °F 10.4 °F 92% 30.02 in 10.0 mi SSE 3.5 mph - N/A   Overcast
7:53 AM 12.2 °F 4.3 °F 10.4 °F 92% 30.02 in 10.0 mi ESE 4.6 mph - N/A   Overcast
8:12 AM 14.0 °F 3.9 °F 10.4 °F 86% 30.01 in 10.0 mi SE 6.9 mph - N/A   Overcast
8:33 AM 14.0 °F 2.9 °F 10.4 °F 86% 30.00 in 10.0 mi ESE 8.1 mph - N/A   Mostly Cloudy
8:52 AM 15.8 °F 7.2 °F 10.4 °F 79% 30.01 in 10.0 mi SSE 5.8 mph - N/A   Mostly Cloudy
9:13 AM 15.8 °F 5.1 °F 12.2 °F 86% 30.00 in 1.8 mi SE 8.1 mph - N/A Snow Light Snow
9:33 AM 15.8 °F 3.4 °F 15.8 °F 100% 29.99 in 0.8 mi ESE 10.4 mph - N/A Snow Light Snow
9:52 AM 17.6 °F 6.4 °F 15.8 °F 93% 29.99 in 2.5 mi ESE 9.2 mph - N/A Snow Light Snow
10:13 AM 17.6 °F 5.0 °F 15.8 °F 93% 29.98 in 10.0 mi ESE 11.5 mph - N/A   Scattered Clouds
10:33 AM 17.6 °F 3.7 °F 15.8 °F 93% 29.96 in 10.0 mi ESE 13.8 mph - N/A   Clear
10:52 AM 19.4 °F 6.6 °F 15.8 °F 86% 29.96 in 10.0 mi SE 12.7 mph - N/A   Scattered Clouds
11:13 AM 19.4 °F 6.6 °F 15.8 °F 86% 29.96 in 10.0 mi SE 12.7 mph - N/A   Mostly Cloudy
11:33 AM 19.4 °F 5.5 °F 17.6 °F 93% 29.94 in 10.0 mi SE 15.0 mph - N/A   Overcast
11:52 AM 21.2 °F 7.8 °F 17.6 °F 86% 29.93 in 10.0 mi ESE 15.0 mph - N/A   Overcast
12:13 PM 21.2 °F 7.3 °F 17.6 °F 86% 29.91 in 10.0 mi ESE 16.1 mph - N/A   Overcast
12:33 PM 21.2 °F 9.5 °F 19.4 °F 93% 29.92 in 10.0 mi ESE 11.5 mph - N/A   Overcast
12:52 PM 24.8 °F 14.6 °F 19.4 °F 80% 29.92 in 10.0 mi SE 10.4 mph - N/A   Mostly Cloudy
1:13 PM 24.8 °F 14.0 °F 19.4 °F 80% 29.92 in 10.0 mi ESE 11.5 mph - N/A   Clear
1:33 PM 24.8 °F 14.6 °F 19.4 °F 80% 29.91 in 10.0 mi ESE 10.4 mph - N/A   Clear
1:52 PM 24.8 °F 13.4 °F 19.4 °F 80% 29.89 in 10.0 mi ESE 12.7 mph - N/A   Clear
2:12 PM 24.8 °F 13.4 °F 21.2 °F 86% 29.88 in 10.0 mi ESE 12.7 mph - N/A   Clear
2:33 PM 24.8 °F 12.9 °F 21.2 °F 86% 29.87 in 7.0 mi ESE 13.8 mph - N/A   Clear
2:52 PM 26.6 °F 15.7 °F 21.2 °F 80% 29.87 in 10.0 mi ESE 12.7 mph - N/A   Clear
3:13 PM 24.8 °F 14.0 °F 21.2 °F 86% 29.88 in 7.0 mi East 11.5 mph - N/A   Clear
3:33 PM 26.6 °F 17.5 °F 21.2 °F 80% 29.88 in 7.0 mi East 9.2 mph - N/A   Clear
3:53 PM 24.8 °F 14.0 °F 21.2 °F 86% 29.88 in 10.0 mi East 11.5 mph - N/A   Clear
4:13 PM 24.8 °F 14.0 °F 21.2 °F 86% 29.88 in 10.0 mi East 11.5 mph - N/A   Clear
4:53 PM 24.8 °F 16.9 °F 19.4 °F 80% 29.88 in 7.0 mi ENE 6.9 mph - N/A   Clear
5:13 PM 24.8 °F 17.9 °F 19.4 °F 80% 29.88 in 7.0 mi East 5.8 mph - N/A   Clear
5:32 PM 24.8 °F 19.1 °F 19.4 °F 80% 29.89 in 7.0 mi ENE 4.6 mph - N/A   Clear
5:53 PM 23.0 °F 17.0 °F 19.4 °F 86% 29.89 in 7.0 mi East 4.6 mph - N/A   Clear
6:13 PM 21.2 °F 13.6 °F 19.4 °F 93% 29.89 in 7.0 mi ENE 5.8 mph - N/A   Clear
6:32 PM 21.2 °F 12.6 °F 19.4 °F 93% 29.91 in 7.0 mi NE 6.9 mph - N/A   Clear
6:53 PM 21.2 °F 12.6 °F 19.4 °F 93% 29.91 in 7.0 mi ENE 6.9 mph - N/A   Clear
7:13 PM 19.4 °F 12.8 °F 17.6 °F 93% 29.92 in 7.0 mi NE 4.6 mph - N/A   Clear
7:32 PM 19.4 °F 11.5 °F 17.6 °F 93% 29.92 in 7.0 mi ENE 5.8 mph - N/A   Clear
7:53 PM 19.4 °F 12.8 °F 17.6 °F 93% 29.93 in 7.0 mi ENE 4.6 mph - N/A   Clear
8:13 PM 19.4 °F 11.5 °F 17.6 °F 93% 29.92 in 7.0 mi ENE 5.8 mph - N/A   Clear
8:32 PM 19.4 °F 12.8 °F 17.6 °F 93% 29.93 in 5.0 mi ENE 4.6 mph - N/A   Clear
8:53 PM 17.6 °F 9.3 °F 17.6 °F 100% 29.93 in 5.0 mi ENE 5.8 mph - N/A   Clear
9:13 PM 17.6 °F 10.7 °F 17.6 °F 100% 29.94 in 5.0 mi NE 4.6 mph - N/A   Clear
9:32 PM 17.6 °F 10.7 °F 15.8 °F 93% 29.95 in 5.0 mi NE 4.6 mph - N/A   Clear
9:53 PM 17.6 °F 10.7 °F 15.8 °F 93% 29.96 in 5.0 mi NE 4.6 mph - N/A   Clear
10:13 PM 15.8 °F 7.2 °F 15.8 °F 100% 29.96 in 5.0 mi NNE 5.8 mph - N/A   Clear
10:32 PM 17.6 °F 10.7 °F 17.6 °F 100% 29.96 in 5.0 mi NE 4.6 mph - N/A   Clear
10:53 PM 17.6 °F 12.3 °F 17.6 °F 100% 29.96 in 5.0 mi NE 3.5 mph - N/A   Clear
11:13 PM 17.6 °F 10.7 °F 15.8 °F 93% 29.96 in 5.0 mi NNE 4.6 mph - N/A   Mostly Cloudy
11:32 PM 19.4 °F 10.4 °F 19.4 °F 100% 29.98 in 5.0 mi North 6.9 mph - N/A   Overcast
11:53 PM 23.0 °F 12.4 °F 21.2 °F 93% 29.98 in 7.0 mi NNE 10.4 mph - N/A   Overcast